[[{"header":{"parameterUnit":"m.s-1","parameterCategory":1,"la1":30.2991,"la2":30.254,"lo1":-89.0895,"lo2":-89.0444,"dy":0.0017,"dx":0.0017,"nx":28,"ny":28,"refTime":"2025-05-23T21:00:00:Z","depth":0,"parameterNumber":2,"parameterNumberName":"U-component_of_WINDS"},"data":[0,0,0,0,0,0,0,0,0,0,0,0,0,0,0,0,0,0,0,0,0,0,0,0,0,0,0,0,0,0,0,0,0,0,0,0,0,0,0,0,0,0,0,0,0,0,0,0,0,0,0,0,0,0,0,0,0,0,-1.2986,-1.2986,0,-1.3018,-1.3019,-1.3019,-1.3013,-1.3013,-1.3012,-1.3012,-1.3047,-1.3049,-1.305,0,0,0,0,0,0,0,0,0,0,0,0,0,-1.2922,-1.2923,-1.2986,-1.2986,-1.2986,-1.3018,-1.3019,-1.3019,-1.3013,-1.3013,-1.3012,-1.3011,-1.3047,-1.3048,-1.305,0,0,0,0,0,0,0,0,0,0,0,0,0,-1.2951,-1.2923,-1.2986,-1.2987,-1.2988,-1.3018,-1.3019,-1.3019,-1.3014,-1.3013,-1.3012,-1.3011,-1.3046,-1.3048,-1.305,-1.3082,0,0,-1.3057,-1.3058,0,0,0,0,0,0,0,0,-1.295,-1.2954,-1.2987,-1.2987,-1.2988,-1.3011,-1.3009,-1.304,-1.3014,-1.3004,-1.3012,-1.3011,-1.3036,-1.3039,-1.3047,-1.3083,-1.3085,-1.3057,-1.3059,-1.306,-1.306,0,0,0,0,0,0,0,-1.2948,-1.2952,-1.2999,-1.2987,-1.2988,-1.2988,-1.2991,-1.3015,-1.3024,-1.3005,-1.3004,-1.3008,-1.3036,-1.3045,-1.3048,-1.3085,-1.3057,-1.3059,-1.3061,-1.3062,-1.315,-1.3151,0,0,0,0,0,0,-1.2945,-1.2951,-1.2998,-1.3,-1.2966,-1.2989,-1.2993,-1.3004,-1.3024,-1.3026,-1.3009,-1.3008,-1.3041,-1.3045,-1.3049,-1.3087,-1.306,-1.3062,-1.3063,-1.3149,-1.315,-1.3151,0,0,0,0,0,0,-1.2943,-1.2949,-1.2996,-1.2975,-1.2981,-1.2991,-1.3004,-1.3005,-1.3014,-1.3027,-1.3029,-1.3016,-1.3041,-1.3046,-1.3074,-1.3088,-1.3063,-1.3065,-1.3148,-1.3149,-1.3151,-1.3163,0,0,0,0,0,0,-1.2941,-1.2948,-1.2959,-1.2975,-1.2982,-1.3019,-1.3005,-1.3007,-1.3018,-1.3017,-1.3034,-1.3036,-1.3041,-1.307,-1.3076,-1.3091,-1.3067,-1.3146,-1.3148,-1.315,-1.3161,-1.3165,-1.3167,0,0,0,0,0,-1.2939,-1.2962,-1.296,-1.2966,-1.2996,-1.302,-1.3024,-1.3028,-1.3019,-1.3031,-1.3039,-1.3036,-1.3086,-1.3073,-1.3079,-1.3095,-1.3145,-1.3148,-1.315,-1.316,-1.3164,-1.3167,0,0,0,0,0,0,-1.2948,-1.2964,-1.2962,-1.299,-1.3004,-1.3019,-1.3034,-1.3032,-1.3049,-1.3047,-1.3052,-1.3056,-1.3084,-1.3093,-1.3078,-1.3127,-1.3115,-1.3118,-1.312,-1.3124,-1.3127,-1.3124,-1.3068,0,0,0,0,0,-1.2953,-1.297,-1.2984,-1.3008,-1.3014,-1.3023,-1.3034,-1.3036,-1.305,-1.3056,-1.3066,-1.3081,-1.3101,-1.3113,-1.3131,-1.3163,-1.3167,-1.3177,-1.318,-1.3183,-1.3185,-1.3204,-1.3208,-1.3159,-1.3159,-1.3159,0,0,-1.2964,-1.2975,-1.2986,-1.301,-1.302,-1.3039,-1.3028,-1.3048,-1.3062,-1.3059,-1.3085,-1.3094,-1.3111,-1.3141,-1.3155,-1.3149,-1.32,-1.3186,-1.3188,-1.3189,-1.3206,-1.3211,-1.3215,-1.316,-1.316,-1.316,0,0,-1.2993,-1.3003,-1.3024,-1.3035,-1.3051,-1.3057,-1.3062,-1.3078,-1.3083,-1.311,-1.3108,-1.3126,-1.3159,-1.3171,-1.3182,-1.3218,-1.3215,-1.3224,-1.324,-1.3257,-1.3261,-1.3265,-1.3277,-1.3282,-1.3227,-1.3227,-1.3227,0,-1.3005,-1.3032,-1.3035,-1.3056,-1.3067,-1.3065,-1.3087,-1.3098,-1.3119,-1.3127,-1.3121,-1.3162,-1.3174,-1.3207,-1.3215,-1.3224,-1.3231,-1.3221,-1.326,-1.3264,-1.3267,-1.3279,-1.3284,-1.3227,-1.3227,-1.3227,-1.3227,0,-1.3045,-1.3064,-1.308,-1.31,-1.3113,-1.3134,-1.3142,-1.3155,-1.3156,-1.3163,-1.3191,-1.3205,-1.3226,-1.3235,-1.3236,-1.3268,-1.3264,-1.3259,-1.3246,-1.3272,-1.3284,-1.3289,-1.3229,-1.3228,-1.3228,-1.3228,0,0,-1.3079,-1.3102,-1.3108,-1.3117,-1.3136,-1.3151,-1.3173,-1.3193,-1.3204,-1.322,-1.3239,-1.3267,-1.3263,-1.3275,-1.3278,-1.3294,-1.3321,-1.3287,-1.3287,-1.3292,-1.3358,-1.3361,-1.3366,-1.332,-1.3321,-1.3322,-1.3356,0,-1.311,-1.3147,-1.3151,-1.3185,-1.3203,-1.3202,-1.3221,-1.3235,-1.3243,-1.326,-1.3269,-1.3289,-1.3282,-1.3289,-1.3305,-1.3314,-1.3334,-1.3312,-1.3338,-1.3339,-1.3333,-1.3372,-1.3376,-1.3407,-1.3361,-1.3362,-1.3362,0,-1.315,-1.3166,-1.3201,-1.3218,-1.3225,-1.3242,-1.3262,-1.3278,-1.3295,-1.3299,-1.3314,-1.3315,-1.3339,-1.3327,-1.336,-1.3345,-1.3356,-1.3363,-1.3364,-1.3366,-1.3351,-1.3375,-1.3417,-1.3422,-1.3369,-1.3369,-1.3368,0,-1.3171,-1.3202,-1.3227,-1.3235,-1.3255,-1.3267,-1.3276,-1.3292,-1.3304,-1.3322,-1.333,-1.3351,-1.3362,-1.3378,-1.3386,-1.3376,-1.3419,-1.3407,-1.3424,-1.3423,-1.3432,-1.3431,-1.3476,-1.344,-1.344,-1.344,-1.344,0,-1.3204,-1.3225,-1.3236,-1.3251,-1.3276,-1.3282,-1.3306,-1.3315,-1.3329,-1.3347,-1.3349,-1.3366,-1.3375,-1.3394,-1.3401,-1.3427,-1.3432,-1.3437,-1.3438,-1.3437,-1.3436,-1.3443,-1.3441,-1.3441,-1.3441,-1.3441,-1.3441,0,-1.3231,-1.3239,-1.3266,-1.3283,-1.3288,-1.3305,-1.332,-1.3336,-1.3344,-1.3367,-1.3372,-1.3385,-1.3408,-1.3417,-1.3445,-1.3449,-1.348,-1.348,-1.3474,-1.3474,-1.349,-1.3488,-1.3541,-1.3548,-1.3508,-1.3508,-1.3509,0,-1.3251,-1.3267,-1.3286,-1.3298,-1.3307,-1.3326,-1.3339,-1.3346,-1.3359,-1.338,-1.3393,-1.3415,-1.3433,-1.3469,-1.3482,-1.3503,-1.3503,-1.352,-1.3506,-1.3504,-1.3503,-1.3502,-1.3504,-1.3522,-1.3523,-1.3523,-1.3523,0,-1.3286,-1.3289,-1.3307,-1.3326,-1.3341,-1.3356,-1.3372,-1.3382,-1.3391,-1.3406,-1.3429,-1.3443,-1.3471,-1.3493,-1.3516,-1.3527,-1.3527,-1.3528,-1.3533,-1.3531,-1.3526,-1.3529,-1.348,-1.3526,-1.3526,-1.3526,-1.3526,-1.3526,-1.331,-1.3325,-1.334,-1.336,-1.3372,-1.3387,-1.3402,-1.3412,-1.343,-1.3453,-1.3457,-1.3481,-1.3499,-1.3529,-1.3541,-1.356,-1.3556,-1.3563,-1.3565,-1.3567,-1.3567,-1.3524,-1.3565,-1.3565,-1.3565,-1.3565,-1.3564,0,-1.3345,-1.3355,-1.3373,-1.3394,-1.341,-1.3409,-1.3426,-1.3439,-1.346,-1.3476,-1.3494,-1.352,-1.3542,-1.3557,-1.3579,-1.3593,-1.3593,-1.3598,-1.3597,-1.3599,-1.357,-1.3563,-1.3597,-1.3597,-1.3597,-1.3597,-1.3597,-1.3597,-1.3364,-1.3389,-1.3395,-1.3426,-1.3436,-1.3459,-1.3469,-1.3483,-1.3496,-1.3525,-1.3543,-1.3552,-1.3568,-1.3592,-1.3612,-1.3616,-1.3624,-1.3629,-1.3633,-1.3605,-1.3601,-1.3598,-1.3592,-1.3631,-1.3631,-1.3661,-1.3661,-1.3661]},{"header":{"parameterUnit":"m.s-1","parameterCategory":1,"la1":30.2991,"la2":30.254,"lo1":-89.0895,"lo2":-89.0444,"dy":0.0017,"dx":0.0017,"nx":28,"ny":28,"refTime":"2025-05-23T21:00:00:Z","depth":0,"parameterNumber":3,"parameterNumberName":"V-component_of_WINDS"},"data":[0,0,0,0,0,0,0,0,0,0,0,0,0,0,0,0,0,0,0,0,0,0,0,0,0,0,0,0,0,0,0,0,0,0,0,0,0,0,0,0,0,0,0,0,0,0,0,0,0,0,0,0,0,0,0,0,0,0,4.656,4.6561,0,4.6632,4.6633,4.6634,4.6585,4.6583,4.6581,4.6579,4.665,4.6654,4.6658,0,0,0,0,0,0,0,0,0,0,0,0,0,4.6379,4.6382,4.656,4.6561,4.6562,4.6632,4.6633,4.6634,4.6586,4.6583,4.658,4.6578,4.6649,4.6654,4.6658,0,0,0,0,0,0,0,0,0,0,0,0,0,4.6455,4.6383,4.656,4.6546,4.6546,4.6632,4.6633,4.6634,4.6586,4.6583,4.658,4.6577,4.6647,4.6653,4.6659,4.6762,0,0,4.6677,4.668,0,0,0,0,0,0,0,0,4.6451,4.6462,4.6547,4.6547,4.6547,4.6597,4.6595,4.6677,4.6587,4.6571,4.6579,4.6575,4.6635,4.6642,4.6662,4.6765,4.6768,4.6678,4.6681,4.6684,4.6685,0,0,0,0,0,0,0,4.6445,4.6458,4.6589,4.6549,4.6549,4.6536,4.6543,4.6611,4.662,4.6572,4.6569,4.6578,4.6634,4.6657,4.6664,4.6769,4.6677,4.6683,4.6686,4.6689,4.6962,4.6966,0,0,0,0,0,0,4.6442,4.6454,4.6586,4.6591,4.649,4.6542,4.655,4.6584,4.662,4.6622,4.6581,4.6576,4.6648,4.6657,4.6666,4.679,4.6684,4.6689,4.6693,4.6959,4.6963,4.6967,0,0,0,0,0,0,4.6438,4.6454,4.6583,4.6522,4.6537,4.6549,4.6587,4.6587,4.661,4.6626,4.6628,4.6602,4.6646,4.6658,4.6739,4.6792,4.6692,4.6697,4.6954,4.696,4.6965,4.7039,0,0,0,0,0,0,4.6433,4.6453,4.6492,4.6523,4.6541,4.6656,4.659,4.6591,4.662,4.6614,4.6647,4.6649,4.6644,4.6731,4.6745,4.6799,4.6702,4.695,4.6957,4.6963,4.7032,4.7047,4.7059,0,0,0,0,0,4.6427,4.6509,4.6494,4.6511,4.659,4.6659,4.6669,4.6663,4.6625,4.6665,4.6676,4.6648,4.6784,4.6739,4.6755,4.6811,4.6946,4.6955,4.6963,4.7026,4.7044,4.7059,0,0,0,0,0,0,4.6482,4.6513,4.6497,4.6592,4.6624,4.6651,4.67,4.6681,4.6724,4.6716,4.6705,4.6713,4.6799,4.6813,4.6763,4.6914,4.6859,4.6871,4.6902,4.6919,4.6932,4.6927,4.6707,0,0,0,0,0,4.6506,4.656,4.6583,4.6665,4.6682,4.6689,4.6718,4.6711,4.6743,4.6756,4.6772,4.6804,4.6854,4.6887,4.6933,4.7034,4.7041,4.708,4.7094,4.7105,4.7116,4.7172,4.719,4.6995,4.6995,4.6994,0,0,4.6555,4.6578,4.6613,4.6677,4.67,4.6757,4.67,4.6761,4.6803,4.6764,4.6843,4.6857,4.6891,4.6983,4.7025,4.6998,4.7171,4.7116,4.7124,4.7129,4.7182,4.7201,4.7217,4.7,4.6999,4.6998,0,0,4.6673,4.6696,4.6767,4.6793,4.683,4.6834,4.6852,4.6883,4.6891,4.697,4.6943,4.6992,4.7078,4.7104,4.7129,4.726,4.7237,4.7275,4.7346,4.7401,4.7416,4.743,4.7478,4.7496,4.7286,4.7286,4.7286,0,4.6729,4.6813,4.6806,4.6871,4.69,4.687,4.6942,4.6967,4.7017,4.7038,4.7007,4.7116,4.7137,4.7236,4.7268,4.7289,4.7309,4.7272,4.7415,4.7428,4.7441,4.7487,4.7505,4.729,4.729,4.7289,4.7289,0,4.6881,4.694,4.6993,4.7045,4.708,4.7148,4.7151,4.7188,4.7178,4.7186,4.7268,4.7292,4.7344,4.7367,4.7357,4.7465,4.7448,4.7416,4.7361,4.7465,4.7508,4.7525,4.7297,4.7295,4.7294,4.7293,0,0,4.7035,4.7084,4.7104,4.7128,4.7168,4.7213,4.728,4.7332,4.7365,4.7401,4.7457,4.7532,4.7504,4.7532,4.7525,4.7573,4.7678,4.7536,4.7536,4.7563,4.7801,4.7825,4.7846,4.7662,4.7666,4.7668,4.7798,0,4.7157,4.7276,4.7272,4.7383,4.7438,4.7411,4.7469,4.75,4.751,4.7558,4.7567,4.7621,4.7579,4.7597,4.7643,4.7655,4.7725,4.7645,4.7716,4.7718,4.7709,4.7868,4.7893,4.8015,4.7815,4.7818,4.782,0,4.7315,4.7359,4.7475,4.7509,4.7532,4.7585,4.7634,4.768,4.7715,4.7718,4.7752,4.7737,4.7806,4.7749,4.7843,4.7789,4.7818,4.7828,4.7833,4.784,4.7776,4.7881,4.8053,4.8072,4.7846,4.7844,4.7842,0,4.7418,4.7506,4.7588,4.7609,4.765,4.7688,4.7707,4.7738,4.7771,4.7814,4.7835,4.7884,4.7912,4.795,4.795,4.7908,4.8047,4.7989,4.8052,4.8053,4.8083,4.8082,4.8265,4.81,4.8099,4.8099,4.8099,0,4.7555,4.7628,4.7635,4.7685,4.7766,4.7762,4.7842,4.7857,4.7886,4.7938,4.7917,4.7967,4.7963,4.8014,4.8014,4.8093,4.8105,4.8111,4.811,4.8113,4.8113,4.8133,4.8125,4.8104,4.8103,4.8102,4.8101,0,4.7685,4.7692,4.778,4.7812,4.7822,4.7881,4.7909,4.7957,4.7965,4.8032,4.8048,4.806,4.8119,4.8123,4.819,4.819,4.8287,4.8276,4.8276,4.8275,4.8339,4.8333,4.8542,4.857,4.8385,4.8387,4.8388,0,4.7772,4.7828,4.7868,4.7902,4.7924,4.798,4.8014,4.8011,4.8047,4.8093,4.8136,4.8192,4.8238,4.8333,4.8348,4.84,4.8391,4.8461,4.8399,4.8401,4.8394,4.8392,4.8398,4.8473,4.8475,4.8477,4.8478,0,4.7928,4.7929,4.7979,4.8032,4.8074,4.8114,4.8152,4.8182,4.8184,4.8226,4.8286,4.8322,4.8392,4.8449,4.85,4.8519,4.85,4.8498,4.8515,4.852,4.8518,4.8522,4.8311,4.8493,4.8491,4.849,4.8489,4.8489,4.804,4.8089,4.8126,4.8183,4.8212,4.8248,4.8296,4.8311,4.8362,4.842,4.8415,4.8483,4.8518,4.8585,4.8608,4.8661,4.8637,4.8662,4.8669,4.8675,4.8683,4.8509,4.8669,4.8669,4.8669,4.8668,4.8668,0,4.8196,4.8219,4.8271,4.8327,4.8372,4.8351,4.8392,4.8432,4.8492,4.8527,4.8573,4.8643,4.8699,4.872,4.8774,4.8813,4.8806,4.8828,4.8825,4.8831,4.87,4.868,4.8833,4.8833,4.8833,4.8833,4.8833,4.8833,4.8283,4.8366,4.8372,4.8469,4.8491,4.8559,4.8584,4.8618,4.8646,4.8727,4.8774,4.8787,4.8817,4.8874,4.8924,4.8929,4.8951,4.8977,4.8978,4.8856,4.8839,4.8823,4.8805,4.8981,4.8981,4.9104,4.9105,4.9106]}]]